Погода в Новомеловом

Россия / Курская область     51°21′43″N   38°13′54″E
темп.,
°C
ветер,
м/с
пор.,
м/с
влажн.,
%
обл.,
%
осадки,
мм/ч
давл.,
гПа
погр.,
м
18 мая, вт
вт1800:00+17юв33807 0.0 100740
03:00+16юв118894 0.0 100611
06:00+15в38809 0.0 1005151
09:00+20юв6115695 0.0 1005455
12:00+23юв5755100 0.0 10051013
15:00+22ю7870100 0.6 10041082
18:00+16ююз5894100 3.1 1006494
21:00+15юв4796100 6.1 1006209
19 мая, ср
ср1900:00+14юв3795100 0.8 1005179
03:00+12юв37963 0.8 1006176
06:00+13юв499317 0.0 1007303
09:00+16ю5680100 0.0 1007774
12:00+19юв5666100 0.3 10061317
15:00+14ю4896100 6.4 1007550
18:00+13ююв2596100 4.8 1006377
21:00+12ююв4119490 5.3 1006438
20 мая, чт
чт2000:00+12юв5119520 0.3 1006413
03:00+10ююв499714 0.3 1006245
06:00+10юв489752 0.0 1006263
09:00+14ю578298 0.0 1006705
12:00+14ююз6887100 1.4 1007858
15:00+14ююз5887100 1.8 1008740
18:00+14юз5988100 0.1 1009660
21:00+12юз49949 0.3 1010294
21 мая, пт
пт2100:00+10зюз499717 0.0 1011270
03:00+9зюз499733 0.0 1012214
06:00+9зюз410935 0.0 1014344
09:00+14з467464 0.0 1014702
12:00+18з3462100 0.0 10151213
15:00+19ссз2256100 0.0 10151304
18:00+18ссв4572100 0.0 1015350
21:00+14ссв5982100 0.0 1017219
22 мая, сб
сб2200:00+13всв61089100 0.4 1016310
03:00+13всв51194100 1.4 1015317
06:00+13св61394100 0.7 1015425
09:00+14всв71492100 1.0 1014578
12:00+17всв9128298 0.3 1014920
15:00+17ссв81283100 0.4 1014733
18:00+17св71184100 0.0 1013534
21:00+15св61191100 0.0 1013320